TimePDT,TemperatureF,Dew PointF,Humidity,Sea Level PressureIn,VisibilityMPH,Wind Direction,Wind SpeedMPH,Gust SpeedMPH,PrecipitationIn,Events,Conditions,WindDirDegrees,DateUTC
12:52 AM,50.0,42.1,74,29.91,-9999.0,NE,5.8,-,N/A,,Unknown,50,2013-06-17 07:52:00
1:52 AM,48.0,39.9,74,29.90,-9999.0,NE,6.9,-,N/A,,Unknown,50,2013-06-17 08:52:00
2:52 AM,48.0,39.0,71,29.89,-9999.0,ENE,5.8,-,N/A,,Unknown,60,2013-06-17 09:52:00
3:52 AM,46.0,37.9,73,29.89,-9999.0,NE,6.9,-,N/A,,Unknown,50,2013-06-17 10:52:00
4:52 AM,46.9,37.9,71,29.88,-9999.0,NE,5.8,-,N/A,,Unknown,40,2013-06-17 11:52:00
5:52 AM,45.0,37.0,74,29.90,-9999.0,NNE,4.6,-,N/A,,Unknown,30,2013-06-17 12:52:00
6:52 AM,52.0,39.0,61,29.91,-9999.0,NE,3.5,-,N/A,,Unknown,40,2013-06-17 13:52:00
7:52 AM,66.0,42.1,42,29.90,-9999.0,Calm,Calm,-,N/A,,Unknown,0,2013-06-17 14:52:00
8:52 AM,73.9,39.0,28,29.89,-9999.0,South,4.6,-,N/A,,Unknown,190,2013-06-17 15:52:00
9:52 AM,80.1,37.9,22,29.89,-9999.0,SW,8.1,-,N/A,,Unknown,220,2013-06-17 16:52:00
10:52 AM,82.9,37.0,19,29.88,-9999.0,SW,12.7,-,N/A,,Unknown,220,2013-06-17 17:52:00
11:52 AM,84.9,37.9,19,29.88,-9999.0,SW,20.7,-,N/A,,Unknown,230,2013-06-17 18:52:00
12:52 PM,88.0,35.1,15,29.87,-9999.0,WSW,13.8,20.7,N/A,,Unknown,240,2013-06-17 19:52:00
1:52 PM,88.0,37.0,16,29.87,-9999.0,SW,15.0,23.0,N/A,,Unknown,220,2013-06-17 20:52:00
2:52 PM,88.0,35.1,15,29.86,-9999.0,SW,17.3,21.9,N/A,,Unknown,230,2013-06-17 21:52:00
3:52 PM,88.0,30.9,13,29.84,-9999.0,WSW,15.0,20.7,N/A,,Unknown,240,2013-06-17 22:52:00
4:52 PM,84.9,34.0,16,29.84,-9999.0,SSW,16.1,23.0,N/A,,Unknown,210,2013-06-17 23:52:00
5:52 PM,82.9,34.0,17,29.85,-9999.0,SW,17.3,-,N/A,,Unknown,220,2013-06-18 00:52:00
6:52 PM,78.1,37.9,24,29.85,-9999.0,SW,10.4,-,N/A,,Unknown,220,2013-06-18 01:52:00
7:52 PM,71.1,44.1,38,29.85,-9999.0,SW,8.1,-,N/A,,Unknown,230,2013-06-18 02:52:00
8:52 PM,66.0,45.0,47,29.85,-9999.0,Calm,Calm,-,N/A,,Unknown,0,2013-06-18 03:52:00
9:52 PM,60.1,41.0,49,29.86,-9999.0,North,4.6,-,N/A,,Unknown,10,2013-06-18 04:52:00
10:52 PM,54.0,39.9,59,29.86,-9999.0,NE,3.5,-,N/A,,Unknown,40,2013-06-18 05:52:00
11:52 PM,53.1,39.0,59,29.85,-9999.0,NE,5.8,-,N/A,,Unknown,50,2013-06-18 06:52:00